GW1321 Weather Reports


time (UTC)temp
F
wind
direction
speed
knots
gust
knots
rain 1hr
in
rain 24hr
in
rain mn
in
humidity
%
barometer
mb
20260510083043 63 0 0.0 1.7 0.00 0.00 0.00 76 1013.3
20260510082527 63 132 0.0 1.7 0.00 0.00 0.00 76 1013.2
20260510082029 63 0 0.0 1.7 0.00 0.00 0.00 75 1013.4
20260510081541 63 132 0.0 1.7 0.00 0.00 0.00 73 1013.5
20260510081031 63 0 0.0 0.9 0.00 0.00 0.00 74 1013.4
20260510080530 63 0 0.0 0.0 0.00 0.00 0.00 73 1013.1
20260510080040 63 0 0.0 0.9 0.00 0.00 0.00 74 1013.2
20260510075528 63 0 0.0 0.9 0.00 0.00 0.00 73 1013.2
20260510075028 64 0 0.0 1.7 0.00 0.00 0.00 73 1013.2
20260510074544 64 0 0.0 1.7 0.00 0.00 0.00 72 1013.1
20260510074027 64 133 0.0 1.7 0.00 0.00 0.00 72 1013.2
20260510073528 64 0 0.0 0.0 0.00 0.00 0.00 72 1013.1
20260510073045 64 0 0.0 0.9 0.00 0.00 0.00 73 1013.1
20260510072528 64 0 0.0 0.9 0.00 0.00 0.00 73 1013.2
20260510072028 65 0 0.0 0.9 0.00 0.00 0.00 72 1013.2
20260510071550 65 0 0.0 1.7 0.00 0.00 0.00 71 1013.2
20260510071030 65 0 0.0 1.7 0.00 0.00 0.00 71 1013.2
20260510070530 65 0 0.9 1.7 0.00 0.00 0.00 70 1013.2
20260510070044 65 131 0.0 1.7 0.00 0.00 0.00 69 1013.1
20260510065529 65 133 0.0 1.7 0.00 0.00 0.00 68 1013.3
20260510065029 65 132 0.0 1.7 0.00 0.00 0.00 68 1013.4
20260510064541 64 0 0.0 1.7 0.00 0.00 0.00 68 1013.5
20260510064028 63 0 0.0 0.9 0.00 0.00 0.00 68 1013.6
20260510063528 63 0 0.0 0.0 0.00 0.00 0.00 70 1013.7
20260510063040 63 0 0.0 0.0 0.00 0.00 0.00 70 1013.6
20260510062531 62 0 0.0 0.0 0.00 0.00 0.00 70 1013.6
20260510062030 62 0 0.0 0.0 0.00 0.00 0.00 70 1013.6
20260510061542 61 0 0.0 0.0 0.00 0.00 0.00 71 1013.6
20260510061028 61 0 0.0 0.0 0.00 0.00 0.00 72 1013.7
20260510060529 61 0 0.0 0.0 0.00 0.00 0.00 72 1013.6
20260510060045 60 0 0.0 0.0 0.00 0.00 0.00 72 1013.9
20260510055529 60 0 0.0 0.0 0.00 0.00 0.00 72 1013.9
20260510055029 60 0 0.0 0.0 0.00 0.00 0.00 73 1013.8
20260510054542 61 0 0.0 0.0 0.00 0.00 0.00 74 1013.8
20260510054027 61 0 0.0 0.0 0.00 0.00 0.00 71 1013.9
20260510053528 61 0 0.0 0.0 0.00 0.00 0.00 72 1013.9
20260510053055 61 0 0.0 0.0 0.00 0.00 0.00 69 1013.9
20260510052530 61 0 0.0 0.0 0.00 0.00 0.00 69 1013.9
20260510052030 61 0 0.0 0.0 0.00 0.00 0.00 67 1013.9
20260510051547 61 0 0.0 0.0 0.00 0.00 0.00 67 1013.8
20260510051027 62 0 0.0 0.0 0.00 0.00 0.00 66 1013.9
20260510050530 62 0 0.0 0.0 0.00 0.00 0.00 67 1013.7
20260510050050 62 0 0.0 0.0 0.00 0.00 0.00 66 1013.6
20260510045554 62 0 0.0 0.0 0.00 0.00 0.00 66 1013.7
20260510045028 62 0 0.0 0.0 0.00 0.00 0.00 66 1013.6
20260510044543 62 0 0.0 0.0 0.00 0.00 0.00 65 1013.5
20260510044028 62 0 0.0 0.0 0.00 0.00 0.00 64 1013.3
20260510043528 63 0 0.0 0.0 0.00 0.00 0.00 64 1013.3
20260510043058 63 0 0.0 0.0 0.00 0.00 0.00 63 1013.3
20260510042530 63 0 0.0 0.0 0.00 0.00 0.00 63 1013.4
20260510042030 63 0 0.0 0.0 0.00 0.00 0.00 63 1013.4
20260510041539 63 0 0.0 0.0 0.00 0.00 0.00 63 1013.4
20260510041030 63 0 0.0 0.0 0.00 0.00 0.00 64 1013.4
20260510040528 63 0 0.0 0.0 0.00 0.00 0.00 63 1013.5
20260510040044 63 0 0.0 0.0 0.00 0.00 0.00 63 1013.4
20260510035528 63 0 0.0 0.0 0.00 0.00 0.00 63 1013.2
20260510035028 63 0 0.0 0.0 0.00 0.00 0.00 63 1013.2
20260510034540 63 0 0.0 0.0 0.00 0.00 0.00 64 1012.9
20260510034031 63 0 0.0 0.0 0.00 0.00 0.00 63 1012.8
20260510033532 63 0 0.0 0.0 0.00 0.00 0.00 64 1012.9
20260510033040 63 0 0.0 0.0 0.00 0.00 0.00 65 1012.7
20260510032528 63 0 0.0 0.0 0.00 0.00 0.00 69 1012.5
20260510032033 63 0 0.0 0.0 0.00 0.00 0.00 65 1012.3
20260510031549 64 0 0.0 0.0 0.00 0.00 0.00 66 1012.5
20260510031031 64 0 0.0 0.0 0.00 0.00 0.00 64 1012.4
20260510030531 64 0 0.0 0.0 0.00 0.00 0.00 64 1012.3
20260510030041 64 0 0.0 0.0 0.00 0.00 0.00 63 1012.3
20260510025527 64 0 0.0 0.0 0.00 0.00 0.00 63 1012.1
20260510025031 64 0 0.0 0.0 0.00 0.00 0.00 64 1012.2
20260510024544 65 0 0.0 0.0 0.00 0.00 0.00 66 1012.0
20260510024031 65 0 0.0 0.0 0.00 0.00 0.00 63 1011.9
20260510023530 65 0 0.0 0.0 0.00 0.00 0.00 65 1011.8
20260510023040 65 0 0.0 0.0 0.00 0.00 0.00 62 1011.6
20260510022528 66 0 0.0 0.0 0.00 0.00 0.00 62 1011.6
20260510022027 66 0 0.0 0.0 0.00 0.00 0.00 63 1011.5
20260510021548 66 0 0.0 0.0 0.00 0.00 0.00 60 1011.3
20260510021031 66 0 0.0 0.0 0.00 0.00 0.00 60 1011.2
20260510020534 67 0 0.0 0.0 0.00 0.00 0.00 62 1011.1
20260510020039 67 0 0.0 0.0 0.00 0.00 0.00 60 1011.0
20260510015530 67 0 0.0 0.0 0.00 0.04 0.00 62 1011.0
20260510015027 68 0 0.0 0.0 0.00 0.04 0.00 60 1010.9
20260510014541 68 0 0.0 0.0 0.00 0.04 0.00 60 1010.9
20260510014029 68 0 0.0 0.0 0.00 0.04 0.00 60 1010.8
20260510013531 69 0 0.0 0.0 0.00 0.04 0.00 63 1010.8
20260510013048 69 0 0.0 0.0 0.00 0.04 0.00 60 1010.6
20260510012531 69 0 0.0 0.0 0.00 0.04 0.00 59 1010.6
20260510012032 70 0 0.0 0.0 0.00 0.04 0.00 60 1010.4
20260510011543 70 0 0.0 0.0 0.00 0.04 0.00 59 1010.4
20260510011031 71 0 0.0 0.0 0.00 0.04 0.00 59 1010.4
20260510010530 72 0 0.0 0.0 0.00 0.04 0.00 59 1010.4
20260510010044 72 0 0.0 0.0 0.00 0.04 0.00 57 1010.3
20260510005529 72 0 0.0 0.0 0.00 0.04 0.00 55 1010.3
20260510005029 73 0 0.0 0.0 0.00 0.04 0.00 53 1010.2
20260510004545 73 0 0.0 0.0 0.00 0.04 0.00 51 1010.2
20260510004032 74 0 0.0 0.0 0.00 0.04 0.00 53 1010.3
20260510003530 74 0 0.0 0.0 0.00 0.04 0.00 54 1010.3
20260510003038 75 0 0.0 0.0 0.00 0.04 0.00 53 1010.2
20260510002532 75 0 0.0 0.0 0.00 0.04 0.00 53 1010.3
20260510002029 75 0 0.0 0.0 0.00 0.04 0.00 52 1010.3
20260510001543 75 0 0.0 0.0 0.00 0.04 0.00 50 1010.3
20260510001030 76 0 0.0 0.0 0.00 0.04 0.00 48 1010.4
20260510000529 76 0 0.0 0.0 0.00 0.04 0.00 50 1010.3
20260510000048 76 0 0.0 0.9 0.00 0.04 0.00 48 1010.4
20260509235529 77 0 0.0 0.9 0.00 0.04 0.00 47 1010.3
20260509235029 77 0 0.0 0.9 0.00 0.04 0.00 49 1010.2
20260509234544 77 0 0.0 0.0 0.00 0.04 0.00 46 1010.3
20260509234032 78 0 0.0 0.9 0.00 0.04 0.00 48 1010.3
20260509233530 78 0 0.0 0.9 0.00 0.04 0.00 43 1010.3
20260509233043 78 0 0.0 0.9 0.00 0.04 0.00 43 1010.2
20260509232531 78 0 0.0 1.7 0.00 0.04 0.00 44 1010.2
20260509232031 79 0 0.0 1.7 0.00 0.04 0.00 43 1010.3
20260509231544 78 0 0.0 1.7 0.00 0.04 0.00 43 1010.2
20260509231031 79 0 0.0 1.7 0.00 0.04 0.00 41 1010.3
20260509230530 79 130 0.0 1.7 0.00 0.04 0.00 41 1010.4
20260509230041 79 130 0.0 1.7 0.00 0.04 0.00 41 1010.4
20260509225529 79 0 0.0 0.9 0.00 0.04 0.00 43 1010.4
20260509225029 79 0 0.0 1.7 0.00 0.04 0.00 41 1010.4
20260509224540 79 0 0.0 3.5 0.00 0.04 0.00 40 1010.4
20260509224030 79 0 0.0 3.5 0.00 0.04 0.00 40 1010.4
20260509223530 79 84 0.0 1.7 0.00 0.04 0.00 42 1010.2
20260509223040 79 0 0.0 1.7 0.00 0.04 0.00 40 1010.2
20260509222532 79 0 0.0 1.7 0.00 0.04 0.00 41 1010.3
20260509222035 79 0 0.0 2.6 0.00 0.04 0.00 42 1010.3
20260509221543 79 0 0.0 2.6 0.00 0.04 0.00 41 1010.2
20260509221030 79 0 0.0 1.7 0.00 0.04 0.00 42 1010.2
20260509220533 79 0 0.0 1.7 0.00 0.04 0.00 42 1010.3
20260509220042 79 0 0.9 1.7 0.00 0.04 0.00 41 1010.3
20260509215532 79 157 0.0 1.7 0.00 0.04 0.00 40 1010.3
20260509215030 79 0 0.0 1.7 0.00 0.04 0.00 43 1010.3
20260509214555 79 282 0.0 2.6 0.00 0.04 0.00 43 1010.3
20260509214029 79 282 0.9 2.6 0.00 0.04 0.00 42 1010.4
20260509213532 79 0 0.0 1.7 0.00 0.04 0.00 42 1010.4
20260509213042 79 0 0.0 0.0 0.00 0.04 0.00 47 1010.4
20260509212529 79 0 0.0 0.9 0.00 0.04 0.00 47 1010.5
20260509212029 79 0 0.0 3.5 0.00 0.04 0.00 44 1010.5
20260509211541 79 0 0.0 3.5 0.00 0.04 0.00 46 1010.6
20260509211030 79 0 0.0 1.7 0.00 0.04 0.00 47 1010.7
20260509210530 80 0 0.0 1.7 0.00 0.04 0.00 41 1010.7
20260509210049 80 115 0.0 1.7 0.00 0.04 0.00 39 1010.7
20260509205530 81 0 0.0 1.7 0.00 0.04 0.00 42 1010.8
20260509205030 81 115 0.0 1.7 0.00 0.04 0.00 39 1010.8
20260509204543 81 0 0.0 1.7 0.00 0.04 0.00 40 1010.8
20260509204029 81 0 0.0 1.7 0.00 0.04 0.00 39 1010.8
20260509203529 81 0 0.0 1.7 0.00 0.04 0.00 43 1010.9
20260509203050 81 0 0.0 1.7 0.00 0.04 0.00 43 1010.9
20260509202530 81 0 0.0 1.7 0.00 0.04 0.00 40 1010.8
20260509202032 81 0 0.0 1.7 0.00 0.04 0.00 38 1010.9
20260509201541 81 149 0.0 1.7 0.00 0.04 0.00 39 1010.9
20260509201029 81 222 0.9 2.6 0.00 0.04 0.00 39 1011.1
20260509200529 82 0 0.0 2.6 0.00 0.04 0.00 38 1010.9
20260509200042 82 0 0.0 3.5 0.00 0.04 0.00 40 1011.1
20260509195531 82 0 0.9 3.5 0.00 0.04 0.00 41 1011.1
20260509195029 82 93 0.9 3.5 0.00 0.04 0.00 39 1011.2
20260509194550 83 142 0.0 2.6 0.00 0.04 0.00 40 1011.1
20260509194030 83 140 0.0 2.6 0.00 0.04 0.00 38 1011.2
20260509193529 83 130 0.9 2.6 0.00 0.04 0.00 39 1011.3
20260509193052 83 192 0.0 2.6 0.00 0.04 0.00 38 1011.4
20260509192531 83 197 0.9 2.6 0.00 0.04 0.00 35 1011.3
20260509192030 83 0 0.0 2.6 0.00 0.04 0.00 41 1011.4
20260509191619 82 0 0.0 2.6 0.00 0.04 0.00 39 1011.6
20260509191026 82 219 0.9 2.6 0.00 0.04 0.00 33 1011.6
20260509190533 82 291 0.0 2.6 0.00 0.04 0.00 36 1011.6
20260509190050 81 0 0.0 2.6 0.00 0.04 0.00 38 1011.5
20260509185530 81 28 0.9 4.3 0.00 0.04 0.00 37 1011.5
20260509185029 81 11 0.9 4.3 0.00 0.04 0.00 38 1011.6
20260509184552 82 252 0.0 0.0 0.00 0.04 0.00 37 1011.6
20260509184026 82 0 0.0 0.0 0.00 0.04 0.00 40 1011.6
20260509183530 80 0 0.0 0.0 0.00 0.04 0.00 37 1011.7
20260509183050 80 0 0.0 0.0 0.00 0.04 0.00 37 1011.7
20260509182530 80 0 0.0 0.0 0.00 0.04 0.00 39 1011.8
20260509182029 80 0 0.0 0.0 0.00 0.04 0.00 39 1011.8
20260509181542 80 0 0.0 0.0 0.00 0.04 0.00 39 1011.8
20260509181029 80 0 0.0 0.0 0.00 0.04 0.00 37 1011.8
20260509180531 80 0 0.0 0.0 0.00 0.04 0.00 41 1011.7
20260509180040 80 0 0.0 0.0 0.00 0.04 0.00 42 1011.6
20260509175532 81 0 0.0 0.0 0.00 0.04 0.00 40 1011.7
20260509175030 81 0 0.0 0.0 0.00 0.04 0.00 43 1011.6
20260509174558 80 0 0.0 0.0 0.00 0.04 0.00 42 1011.7
20260509174030 80 0 0.0 0.9 0.00 0.04 0.00 42 1011.7
20260509173529 79 0 0.0 0.9 0.00 0.04 0.00 39 1011.7
20260509173049 78 0 0.0 0.0 0.00 0.04 0.00 44 1011.9
20260509172530 78 0 0.0 0.9 0.00 0.04 0.00 43 1011.9
20260509172030 79 0 0.0 0.9 0.00 0.04 0.00 46 1011.8
20260509171540 78 0 0.0 0.0 0.00 0.04 0.00 47 1011.9
20260509171029 77 0 0.0 0.0 0.00 0.04 0.00 46 1012.0
20260509170529 77 0 0.0 2.6 0.00 0.04 0.00 48 1012.0
20260509170048 77 0 0.0 2.6 0.00 0.04 0.00 49 1012.1
20260509165529 77 0 0.9 2.6 0.00 0.04 0.00 53 1012.0
20260509165029 76 0 0.0 1.7 0.00 0.04 0.00 57 1012.1
20260509164547 75 0 0.0 2.6 0.00 0.04 0.00 58 1012.2
20260509164029 75 308 0.9 2.6 0.00 0.04 0.00 57 1012.3
20260509163530 75 308 0.0 1.7 0.00 0.04 0.00 59 1012.4
20260509163045 75 0 0.9 1.7 0.00 0.04 0.00 61 1012.3
20260509162530 74 50 0.0 1.7 0.00 0.04 0.00 62 1012.3
20260509162030 74 58 0.0 1.7 0.00 0.04 0.00 63 1012.2
20260509161541 74 240 0.9 1.7 0.00 0.04 0.00 63 1012.2
20260509161037 73 240 0.0 1.7 0.00 0.04 0.00 64 1012.2
20260509160530 73 240 0.0 1.7 0.00 0.04 0.00 67 1012.1
20260509160039 73 0 0.0 1.7 0.00 0.04 0.00 67 1012.2
20260509155529 72 0 0.0 1.7 0.00 0.04 0.00 68 1012.1
20260509155029 72 0 0.0 1.7 0.00 0.04 0.00 69 1012.1
20260509154540 71 251 0.9 2.6 0.00 0.04 0.00 70 1012.1
20260509154030 71 0 0.0 2.6 0.00 0.04 0.00 70 1012.2
20260509153534 70 0 0.9 2.6 0.00 0.04 0.00 69 1012.2
20260509153053 70 0 0.0 0.0 0.00 0.04 0.00 71 1012.1
20260509152529 69 0 0.0 0.0 0.00 0.04 0.00 71 1012.1
20260509152029 69 0 0.0 0.0 0.00 0.04 0.00 74 1012.0
20260509151544 69 0 0.0 0.0 0.00 0.04 0.00 75 1012.0
20260509151030 68 0 0.0 0.0 0.00 0.04 0.00 76 1012.0
20260509150530 68 0 0.0 1.7 0.00 0.04 0.00 77 1012.0
20260509150045 67 0 0.0 2.6 0.00 0.04 0.00 78 1012.0
20260509145530 67 0 0.0 2.6 0.00 0.04 0.00 80 1011.9
20260509145030 66 236 0.9 2.6 0.00 0.04 0.00 79 1011.9
20260509144542 66 270 0.9 2.6 0.00 0.04 0.00 79 1011.9
20260509144031 65 272 0.9 2.6 0.00 0.04 0.00 80 1011.9
20260509143530 65 273 0.9 2.6 0.00 0.04 0.00 81 1011.9
20260509143040 65 239 0.0 1.7 0.00 0.04 0.00 82 1011.9
20260509142532 64 238 0.0 1.7 0.00 0.04 0.00 82 1011.9
20260509142029 64 237 0.0 1.7 0.00 0.04 0.00 82 1011.8
20260509141541 64 240 0.0 1.7 0.00 0.04 0.00 83 1011.9
20260509141030 63 240 0.9 1.7 0.00 0.04 0.00 84 1011.8
20260509140529 63 240 0.0 1.7 0.00 0.04 0.00 84 1011.9
20260509140047 62 0 0.0 0.9 0.00 0.04 0.00 85 1011.8
20260509135532 62 0 0.0 0.0 0.00 0.04 0.00 87 1011.7
20260509135033 61 0 0.0 0.0 0.00 0.04 0.00 88 1011.7
20260509134542 61 0 0.0 0.0 0.00 0.04 0.00 88 1011.6
20260509134029 60 0 0.0 0.0 0.00 0.04 0.00 89 1011.5
20260509133530 60 0 0.0 0.0 0.00 0.04 0.00 90 1011.5
20260509133043 59 0 0.0 0.0 0.00 0.04 0.00 91 1011.4
20260509132530 58 0 0.0 0.9 0.00 0.04 0.00 91 1011.4
20260509132030 58 0 0.0 0.9 0.00 0.04 0.00 92 1011.5
20260509131538 57 0 0.0 0.9 0.00 0.04 0.00 93 1011.4
20260509131029 56 0 0.0 0.9 0.00 0.04 0.00 94 1011.4
20260509130529 55 0 0.0 0.0 0.00 0.04 0.00 94 1011.3
20260509130042 55 0 0.0 0.0 0.00 0.04 0.00 94 1011.3
20260509125529 55 0 0.0 0.0 0.00 0.04 0.00 94 1011.4
20260509125030 55 0 0.0 0.0 0.00 0.04 0.00 94 1011.4
20260509124548 54 0 0.0 0.0 0.00 0.04 0.00 94 1011.3
20260509124030 54 0 0.0 0.0 0.00 0.04 0.00 94 1011.2
20260509123530 54 0 0.0 0.0 0.00 0.04 0.00 94 1011.2
20260509123043 53 0 0.0 0.0 0.00 0.04 0.00 94 1011.2
20260509122529 53 0 0.0 0.0 0.00 0.04 0.00 94 1011.1
20260509122030 53 0 0.0 0.0 0.00 0.04 0.00 94 1011.0
20260509121539 53 0 0.0 0.0 0.00 0.04 0.00 94 1010.9
20260509121030 53 0 0.0 0.0 0.00 0.04 0.00 94 1010.9
20260509120530 53 0 0.0 0.0 0.00 0.04 0.00 94 1011.0
20260509120041 52 0 0.0 0.0 0.00 0.04 0.00 93 1010.9
20260509115532 52 0 0.0 0.0 0.00 0.04 0.00 93 1010.9
20260509115029 52 0 0.0 0.0 0.00 0.04 0.00 93 1010.9
20260509114544 52 0 0.0 0.0 0.00 0.04 0.00 93 1010.8
20260509114029 51 0 0.0 0.0 0.00 0.04 0.00 92 1010.8
20260509113530 51 0 0.0 0.0 0.00 0.04 0.00 92 1010.8
20260509113050 52 0 0.0 0.9 0.00 0.04 0.00 91 1010.7
20260509112530 52 0 0.0 0.9 0.00 0.04 0.00 92 1010.6
20260509112030 52 0 0.0 0.9 0.00 0.04 0.00 93 1010.4
20260509111542 51 0 0.0 0.0 0.00 0.04 0.00 91 1010.4
20260509111032 51 0 0.0 0.0 0.00 0.04 0.00 91 1010.4
20260509110529 52 0 0.0 0.0 0.00 0.04 0.00 91 1010.3
20260509110045 52 0 0.0 0.9 0.00 0.04 0.00 91 1010.3
20260509105530 52 0 0.0 0.9 0.00 0.04 0.00 91 1010.1
20260509105030 52 0 0.0 0.0 0.00 0.04 0.00 90 1010.1
20260509104538 52 0 0.0 0.0 0.00 0.04 0.00 91 1010.0
20260509104031 52 0 0.0 0.0 0.00 0.04 0.00 90 1010.0
20260509103529 53 0 0.0 0.0 0.00 0.04 0.00 90 1010.0
20260509103048 53 0 0.0 0.0 0.00 0.04 0.00 90 1009.9
20260509102530 53 0 0.0 0.0 0.00 0.04 0.00 90 1009.8
20260509102029 53 0 0.0 0.0 0.00 0.04 0.00 89 1009.9
20260509101555 53 0 0.0 0.0 0.00 0.04 0.00 89 1009.9
20260509101031 53 0 0.0 0.0 0.00 0.04 0.00 89 1009.9
20260509100529 54 0 0.0 0.0 0.00 0.04 0.00 88 1010.0
20260509100136 54 0 0.0 0.0 0.00 0.04 0.00 88 1009.9
20260509095531 54 0 0.0 0.0 0.00 0.04 0.00 88 1010.1
20260509095029 55 0 0.0 0.0 0.00 0.04 0.00 88 1010.1
20260509094542 55 0 0.0 0.0 0.00 0.04 0.00 88 1010.1
20260509094029 55 0 0.0 0.0 0.00 0.04 0.00 88 1010.1
20260509093532 55 0 0.0 0.0 0.00 0.04 0.00 88 1010.2
20260509093041 55 0 0.0 0.0 0.00 0.04 0.00 87 1010.3
20260509092529 56 0 0.0 0.0 0.00 0.04 0.00 86 1010.3
20260509092029 56 0 0.0 0.0 0.00 0.04 0.00 85 1010.3
20260509091543 56 0 0.0 0.0 0.00 0.04 0.00 85 1010.3
20260509091030 57 0 0.0 0.0 0.00 0.04 0.00 85 1010.3
20260509090534 57 0 0.0 0.0 0.00 0.04 0.00 84 1010.3
20260509090048 57 0 0.0 0.0 0.00 0.04 0.00 84 1010.4
20260509085529 58 0 0.0 0.0 0.00 0.04 0.00 83 1010.4
20260509085030 58 0 0.0 0.0 0.00 0.04 0.00 83 1010.4
20260509084547 59 0 0.0 0.9 0.00 0.04 0.00 83 1010.6
20260509084030 59 0 0.0 1.7 0.00 0.04 0.00 83 1010.6
20260509083529 59 0 0.0 1.7 0.00 0.04 0.00 83 1010.4